Regional Weather Roundup
Issued by NWS Upton, NY

Current Version | Previous Version | Graphics & Text | Print | Product List | Glossary Off
Versions: 1 2 3 4 5 6 7 8 9 10 11 12 13 14 15 16 17 18 19 20 21 22 23 24 25 26 27 28 29 30 31 32 33 34 35 36 37 38 39 40 41 42 43 44 45 46 47 48 49 50

000
ASUS41 KOKX 022204
RWROKX

REGIONAL WEATHER ROUNDUP
NATIONAL WEATHER SERVICE NEW YORK NY
600 PM EDT WED SEP 02 2015

NOTE: "FAIR" INDICATES FEW OR NO CLOUDS BELOW 12,000 FEET WITH NO
SIGNIFICANT WEATHER AND/OR OBSTRUCTIONS TO VISIBILITY.

NYZ071-072-176-178-NJZ106-104-022300-
NEW YORK CITY METRO AREA


CITY           SKY/WX    TMP DP  RH WIND       PRES   REMARKS
CENTRAL PARK   SUNNY     84  64  50 VRB3      29.93S
LAGUARDIA APRT PTSUNNY   83  62  49 S15       29.90S
KENNEDY INTL   PTSUNNY   81  63  54 S17       29.92F
NEWARK/LIBERTY PTSUNNY   86  68  54 S9        29.89S
BRNX BOT. GARD   N/A     81  63  54 SE5       29.93R
TETERBORO      SUNNY     86  65  49 S9        29.88S
$$

NYZ177-179-078>081-022300-
LONG ISLAND NEW YORK

CITY           SKY/WX    TMP DP  RH WIND       PRES   REMARKS
FARMINGDALE    SUNNY     81  63  54 S12       29.92F
ISLIP          PTSUNNY   80  62  54 SW13      29.90F
SHIRLEY        MOSUNNY   79  66  64 S10       29.92F
WESTHAMPTON    MOSUNNY   79  64  60 SW9       29.93F
MONTAUK POINT    N/A     78  66  66 SW8       29.92F
$$

NYZ052-065-067-022300-
HUDSON VALLEY

CITY           SKY/WX    TMP DP  RH WIND       PRES   REMARKS
WHITE PLAINS   SUNNY     83  64  52 S10       29.91F
NEWBURGH       NOT AVBL
MONTGOMERY     SUNNY     87  64  46 W6        29.90S
POUGHKEEPSIE   SUNNY     90  61  37 SW3       29.88F HX  90
ALBANY         MOSUNNY   86  66  51 W8        29.88F
$$

NJZ001-105-106-008-010-013-015-019>022-104-022300-
NEW JERSEY

CITY           SKY/WX    TMP DP  RH WIND       PRES   REMARKS
NEWARK/LIBERTY PTSUNNY   86  68  54 S9        29.89S
TETERBORO      SUNNY     86  65  49 S9        29.88S
CALDWELL       SUNNY     91  58  32 N5        29.89S HX  90
MORRISTOWN     MOSUNNY   90  63  40 N3        29.90S HX  90
SOMERVILLE     SUNNY     91  62  37 N7        29.88S HX  91
SUSSEX         SUNNY     87  64  46 CALM      29.93S
ANDOVER          N/A     83  70  64 CALM      29.93S
TRENTON        MOSUNNY   90  63  40 SW7       29.90S HX  91
MILLVILLE      PTSUNNY   83  69  62 VRB3      29.93S
ATLANTIC CITY  PTSUNNY   82  71  69 S7        29.93F
WRIGHTSTOWN    SUNNY     88  69  53 S6        29.88S HX  92
TOMS RIVER     MOSUNNY   82  68  61 S12       29.92F
BELMAR         SUNNY     81  66  61 S12       29.92F
$$

PAZ047>061-062-071-022300-
EASTERN PENNSYLVANIA

CITY           SKY/WX    TMP DP  RH WIND       PRES   REMARKS
PHILADELPHIA   MOSUNNY   92  61  35 SW10      29.91S HX  92
ALLENTOWN      SUNNY     89  63  41 N6        29.92S HX  90
SCRANTON       SUNNY     86  64  47 NW8       29.95F
$$

CTZ002-004>006-009-010-012-RIZ004-006-007-MAZ004-011-015-022300-
SOUTHERN NEW ENGLAND
 IN CT

CITY           SKY/WX    TMP DP  RH WIND       PRES   REMARKS
BRADLEY INTL   MOSUNNY   87  65  47 NW7       29.88F
HARTFORD       SUNNY     89  57  33 NW7       29.87F
DANBURY        SUNNY     87  58  37 W5        29.91F
WTRBRY/OXFORD  SUNNY     86  61  42 NW3       29.94F
BRIDGEPORT     SUNNY     84  67  56 SW14      29.89F
MERIDEN        SUNNY     86  65  49 S12       29.88F
NEW HAVEN      SUNNY     81  69  67 S6        29.90F
CHESTER        NOT AVBL
GROTON         SUNNY     77  69  76 SW8       29.89F
WILLIMANTIC    SUNNY     88  62  41 VRB3      29.89S

 IN RI

CITY           SKY/WX    TMP DP  RH WIND       PRES   REMARKS
PROVIDENCE     MOSUNNY   83  67  58 SW15      29.89S
BLOCK ISLAND   SUNNY     75  70  83 SW14      29.92F
WESTERLY       SUNNY     79  65  62 SW9       29.91F

 IN MA

CITY           SKY/WX    TMP DP  RH WIND       PRES   REMARKS
BOSTON         SUNNY     89  60  37 W9        29.86F
WORCESTER      SUNNY     83  60  45 W6        29.93F
WESTFIELD      SUNNY     87  64  46 NW7       29.89F
PROVINCETOWN     N/A     75  63  64 S14G20    29.88F
NANTUCKET        N/A    N/A N/A N/A MISG      29.92F
$$

ANZ330-335-338-340-345-350-353-355-022300-
COASTAL MARINE OBSERVATIONS


STATION/POSITION TIME  SKY/WX   TEMP    WIND        PRES    VSBY  WAVE
                                AIR SEA DIR/SP/G                  HT/PER
                 (UTC)          (F)     (DEG/KT/KT) (MB)    (MI)  (FT/S)
NY HARB ENTRANCE 2050            78 78  180/ 14/ 16 1012.8          2/14
4S FIRE IS       NOT AVBL
20S FIRE ISLAND  2050            76 76  190/ 10/ 12 1013.5          2/ 9
GREAT SOUTH BAY  2100            77 80  220/ 10/ 14   N/A
23SW MTP         2150            75 74  220/  8/ 10 1012.9          2/ 8
HUDSON CANYON    NOT AVBL
KINGS POINT      2100            81 75  190/ 12/ 14 1012.0
EXECUTION ROCKS  2100            82     170/ 10/ 12   N/A
CENTRAL LI SOUND NOT AVBL
EASTERN LI SOUND 2100            75 71  210/ 10/ 12   N/A
ROBBINS REEF     2100            78     160/ 17/ 18 1011.3
$$


>>>>>>>>>>>>>>>>>>>>>>>>>>>> KEY <<<<<<<<<<<<<<<<<<<<<<<<<<<
>                                                          <
>     SKY/WX - SKY CONDITION/PRESENT WEATHER               <
>     TMP    - TEMPERATURE IN FAHRENHEIT                   <
>     DP     - DEWPOINT IN FAHRENHEIT                      <
>     RH     - RELATIVE HUMIDITY IN PERCENT                <
>     WIND   - DIRECTION AND SPEED IN MPH                  <
>     PRES   - MEAN SEA LEVEL PRESSURE IN INCHES OF HG     <
>     WCI    - WIND CHILL INDEX                            <
>     VSB    - VISIBILITY IN MILES                         <
>     HX     - HEAT INDEX                                  <
>     TC     - TEMPERATURE IN CELSIUS                      <
>     VRB    - VARIABLE WIND DIRECTION                     <
>                                                          <
>>>>>>>>>>>>>>>>>>>>>>>>>>>> KEY <<<<<<<<<<<<<<<<<<<<<<<<<<<




USA.gov is the U.S. government's official web portal to all federal, state and local government web resources and services.